GFSWCAN_prec_cloud_003.txt.gz
Cloud_Cover
100 100 100 100 100 100 100 100 100 100 100 100 100 42 43 100 100 71 100 100 62 56 7 53 90 72 54 11 21 44 17 5 14 6 20 13 39 84 59 17 44 29 60 100 100 100 24 9 10 11 56 97 35 12
100 100 100 100 100 100 100 100 100 100 100 100 100 62 100 100 100 94 100 96 65 61 34 86 56 43 65 10 59 67 25 20 7 5 5 5 34 44 54 94 76 99 100 100 100 100 11 5 8 97 99 6 5 5
100 100 100 100 100 100 100 100 100 100 100 97 68 100 100 100 100 98 100 100 100 73 61 100 59 36 92 94 20 8 23 5 5 5 5 14 11 98 90 87 100 100 100 100 49 79 48 48 99 70 5 9 9 5
100 100 100 100 100 100 100 100 100 100 100 44 99 100 100 100 100 97 100 100 93 87 85 100 100 94 92 100 36 76 36 9 5 33 60 33 38 59 72 58 100 100 100 100 100 100 100 100 90 5 5 5 5 6
100 100 100 100 100 100 100 100 100 100 100 100 100 100 100 100 100 100 100 99 47 30 14 89 100 100 100 100 100 100 100 100 100 100 92 90 100 96 88 77 100 100 100 47 97 91 16 29 13 11 28 17 28 40
100 100 100 100 100 100 100 100 100 100 100 100 100 100 100 100 100 100 100 94 98 24 6 63 69 100 100 100 100 100 100 100 100 100 100 100 100 29 68 69 100 100 97 100 5 5 5 30 96 64 22 55 84 90
100 100 100 100 100 100 100 99 100 100 100 100 100 100 100 100 100 100 100 100 100 95 77 95 85 28 48 91 100 100 100 86 50 73 90 70 100 100 100 100 100 100 100 61 5 5 5 5 5 5 5 5 5 13
100 100 100 100 100 100 100 100 100 100 100 100 100 100 100 100 100 100 100 100 99 54 14 53 82 100 93 98 99 97 100 94 97 100 100 100 100 100 100 100 100 100 100 94 31 5 5 8 35 55 21 11 50 59
100 100 100 100 100 100 100 100 100 100 100 100 100 100 100 100 100 100 100 100 100 100 100 100 100 100 100 100 100 100 98 100 94 100 100 100 100 100 99 100 100 100 100 100 100 68 20 92 49 73 56 93 100 100
100 100 100 99 100 100 100 100 100 100 100 100 100 100 100 100 100 100 100 100 100 100 100 100 100 100 100 100 100 100 95 94 45 100 100 100 97 100 100 100 90 98 97 31 5 31 79 89 100 100 100 100 100 100
100 100 100 100 100 100 100 100 100 100 100 100 100 100 100 100 100 100 100 100 100 100 100 100 100 100 100 100 100 100 100 98 95 23 100 88 100 100 100 99 58 58 76 58 64 100 100 100 100 100 100 100 100 100
100 100 100 100 100 100 100 100 100 100 100 100 100 100 100 100 100 90 94 100 100 100 100 100 100 100 100 100 100 99 84 92 75 83 100 100 100 100 100 100 100 100 100 99 96 99 86 100 100 95 100 100 100 100
100 100 100 100 100 100 100 100 100 100 100 100 100 100 100 100 98 57 100 100 100 100 100 100 100 100 100 61 100 100 100 100 92 99 100 100 100 100 100 100 100 100 100 79 84 92 97 100 100 100 100 100 100 100
100 100 100 100 100 100 100 100 100 100 100 100 100 100 98 100 100 100 100 100 100 100 100 100 100 100 100 100 100 100 100 100 100 100 100 100 100 100 100 100 100 100 100 97 87 90 100 100 70 71 98 100 100 100
100 100 100 100 100 100 100 100 100 100 100 100 100 99 100 100 100 100 100 100 100 100 100 100 100 100 100 100 100 100 99 78 68 90 99 100 100 100 99 100 100 100 96 86 85 85 95 88 89 89 98 98 100 100
100 100 100 100 100 100 100 100 100 100 100 100 100 100 100 100 100 100 100 100 100 100 100 100 100 100 100 100 100 100 99 92 97 100 100 100 100 98 88 98 63 86 89 14 9 56 100 100 100 100 100 100 100 100
100 100 100 100 100 100 100 100 100 100 100 100 100 100 100 100 100 100 100 100 100 100 100 100 100 100 98 86 100 100 100 100 100 100 100 93 79 58 81 91 75 92 83 71 89 49 37 68 100 97 100 100 100 100
100 100 100 100 100 100 100 100 100 100 100 100 100 100 100 100 100 100 100 100 100 100 100 99 100 98 99 99 96 82 100 100 100 93 99 99 93 96 86 97 60 79 88 83 93 91 100 100 100 100 100 97 92 100
100 100 100 100 100 100 98 100 100 100 100 100 100 100 100 100 100 100 100 100 96 83 90 100 97 96 98 99 100 100 99 86 93 98 80 63 83 80 77 91 99 100 100 100 100 100 100 100 100 100 96 100 71 44
100 100 100 100 100 100 100 100 100 100 99 98 100 100 100 100 100 100 100 100 85 66 82 80 55 27 52 90 97 97 98 92 93 94 83 100 88 97 100 100 100 100 99 99 90 78 56 35 28 63 50 28 83 100
100 100 100 100 100 100 100 100 100 100 100 100 100 100 100 99 100 100 100 100 100 100 94 78 100 100 100 100 100 100 100 100 100 100 90 99 100 100 86 83 95 93 90 63 67 87 79 76 70 68 73 64 68 87
100 100 100 100 97 100 99 100 100 100 85 83 72 92 96 96 99 91 96 100 100 100 100 100 100 100 100 100 100 100 100 100 100 100 100 97 90 84 96 94 99 100 100 97 99 83 62 58 16 65 90 77 72 80
46 92 100 100 100 100 100 100 100 100 100 99 100 100 98 89 92 66 78 92 98 92 100 100 100 100 100 100 100 100 99 100 100 100 100 100 100 100 100 100 93 48 5 25 37 66 71 43 51 81 88 87 99 92
2 10 8 18 48 88 84 97 100 100 100 100 100 89 100 100 98 94 72 73 84 98 100 100 100 100 100 100 100 100 100 100 100 100 100 100 99 100 90 95 83 91 97 85 74 59 61 68 48 76 75 96 100 100
5 64 31 65 41 55 99 100 100 100 100 98 84 68 51 73 77 95 86 100 100 100 100 100 100 100 100 100 100 100 100 100 100 100 100 96 93 100 100 98 74 88 78 90 94 98 82 75 80 85 84 98 100 100
37 98 90 99 96 94 98 97 100 93 100 77 92 87 98 88 91 94 100 100 100 100 100 100 100 100 100 100 100 100 100 100 100 100 100 100 100 100 100 100 98 70 64 100 100 100 100 100 100 93 90 71 98 98
80 100 99 100 93 98 86 95 98 100 100 97 99 99 96 72 83 94 99 100 100 100 100 100 100 100 100 100 100 100 100 100 100 98 90 96 100 100 96 67 50 40 98 100 100 100 100 100 100 96 100 99 99 100
100 98 88 71 72 82 76 78 80 79 91 92 99 82 99 100 93 98 100 100 100 100 100 100 100 100 100 100 100 100 100 100 100 100 100 100 91 87 45 32 45 96 68 66 93 98 94 100 100 100 100 100 100 100
100 82 65 73 75 91 100 100 92 93 98 91 89 86 89 99 90 87 93 100 99 100 100 100 100 100 100 100 100 100 100 100 100 68 16 5 9 6 56 79 58 53 86 95 44 33 93 100 100 65 11 62 59 67
66 87 74 93 86 86 89 89 81 98 97 98 100 98 96 95 94 95 99 99 99 98 100 100 100 100 100 96 91 49 90 93 32 22 57 77 76 94 98 100 100 93 100 99 26 8 78 48 49 6 5 5 38 54
99 93 98 98 90 92 99 100 100 100 96 98 98 94 98 98 96 100 100 100 100 100 99 97 98 100 62 99 98 75 33 70 100 100 100 99 100 100 100 100 100 100 100 99 64 72 100 98 91 74 54 32 24 57
86 96 100 54 61 76 79 90 99 90 97 99 99 100 100 100 99 96 95 100 100 100 100 100 100 98 100 100 98 95 93 97 91 99 100 100 100 100 100 100 100 100 100 95 80 69 100 99 77 76 79 73 72 74
91 98 91 95 94 93 90 77 35 73 98 100 100 100 100 99 96 98 100 100 100 100 100 100 98 100 94 59 28 25 76 87 99 100 100 100 100 100 100 100 100 100 100 91 92 83 78 88 59 59 70 88 70 62

GFSWCAN_prec_cloud_006.txt.gz
Cloud_Cover
100 100 100 100 100 100 100 100 94 89 100 100 100 100 77 12 5 5 7 14 100 100 57 5 34 91 54 49 29 24 25 33 13 42 61 16 54 44 15 5 5 12 6 26 6 64 36 5 75 100 80 42 45 28
100 100 100 100 100 100 100 100 100 100 100 100 100 100 100 5 5 5 14 91 100 100 87 56 62 100 70 99 62 5 52 62 54 78 46 18 93 93 6 29 5 6 5 5 6 5 5 5 65 20 5 18 92 100
100 100 100 100 100 100 100 82 100 100 100 100 100 100 96 12 4 5 48 100 100 100 73 93 58 94 41 100 87 7 87 94 62 9 22 8 100 87 86 23 5 61 12 22 9 82 7 5 16 86 97 100 80 5
100 100 100 100 100 100 100 100 100 98 100 100 100 54 88 5 5 23 100 100 100 100 100 99 71 90 76 16 86 95 44 75 16 22 65 63 88 24 10 5 31 100 8 5 12 67 79 100 80 6 9 11 5 9
100 100 100 100 100 100 100 100 100 98 96 99 100 100 85 5 62 100 100 100 100 100 96 90 98 89 97 86 43 100 79 9 23 56 72 59 38 5 34 94 100 100 94 100 100 74 21 15 27 91 66 34 51 79
100 100 100 100 100 100 100 100 100 100 100 100 100 100 100 100 100 100 100 100 100 100 68 61 65 100 82 50 94 100 58 29 65 64 63 99 100 99 100 100 100 100 100 56 19 98 100 60 10 74 94 96 78 94
100 100 100 100 100 100 100 100 100 100 100 100 100 80 100 100 100 100 100 100 100 100 99 80 100 15 99 76 13 50 38 99 100 100 100 100 100 98 92 74 100 100 100 100 100 86 5 5 5 10 33 66 100 43
100 100 100 100 100 100 100 100 100 100 100 100 100 100 100 100 100 100 100 100 100 100 100 100 96 87 78 99 98 95 100 100 100 98 97 92 64 88 94 100 100 100 100 100 45 5 5 5 40 98 100 94 77 98
100 100 100 100 100 100 100 100 100 100 100 100 100 100 100 100 100 100 100 100 100 100 100 100 94 99 75 96 83 89 71 98 79 98 100 87 100 100 100 100 100 100 97 87 34 12 27 44 100 100 100 100 100 100
100 100 100 100 100 100 100 100 100 100 100 100 100 100 100 100 100 100 100 100 84 78 100 100 100 100 54 100 100 98 99 93 90 98 98 100 100 100 100 100 100 45 6 38 98 100 100 100 88 100 100 100 100 99
100 100 100 100 100 100 99 100 100 100 100 100 100 100 100 100 100 100 100 100 100 100 100 100 100 100 100 100 100 95 100 85 89 89 100 98 100 100 100 98 100 100 100 100 100 100 100 100 100 100 100 85 99 97
100 100 100 100 100 100 100 100 100 100 100 100 100 100 100 100 100 96 99 100 100 100 100 100 100 100 100 100 100 100 100 100 100 93 100 99 100 100 100 100 100 100 100 100 100 100 100 100 100 100 96 75 70 72
100 100 99 92 84 100 100 100 100 100 100 100 100 100 100 99 97 100 100 100 100 100 100 100 100 100 100 100 100 100 100 100 57 96 83 100 100 100 100 100 100 100 100 100 100 100 100 100 88 49 16 77 93 66
100 100 100 100 91 100 100 100 100 100 100 100 100 100 100 100 100 100 100 100 100 100 100 100 100 100 100 100 100 100 100 100 100 100 100 100 100 100 100 100 100 98 100 100 100 100 81 16 10 13 30 52 56 51
100 100 100 100 100 100 100 100 100 100 100 100 100 100 98 100 100 100 100 100 100 100 100 100 100 98 100 100 99 100 100 99 94 100 100 100 100 100 96 100 100 88 61 99 81 40 15 5 43 16 58 60 61 77
100 100 100 100 100 100 100 100 100 100 100 100 100 100 100 100 100 100 100 100 100 100 100 100 100 100 100 100 100 100 100 99 100 100 100 100 100 100 99 97 100 82 62 53 35 8 11 42 76 90 100 90 98 99
100 100 100 100 100 100 100 100 100 100 100 100 100 100 100 100 100 100 100 100 100 100 100 100 100 100 100 100 100 100 100 100 100 100 100 100 91 86 96 98 96 70 9 61 91 74 97 100 100 57 9 5 6 8
100 100 100 100 100 100 100 100 100 100 100 100 100 100 100 100 100 100 100 100 100 100 100 100 100 100 100 100 100 100 100 100 100 100 100 100 99 93 69 59 20 87 100 100 100 100 100 94 30 6 5 5 5 5
96 100 100 100 100 100 100 100 100 100 100 100 100 100 100 100 100 100 100 100 100 100 100 100 100 100 100 100 100 100 100 100 100 99 100 63 32 58 92 100 100 100 100 99 97 77 56 43 14 5 5 5 5 5
100 100 100 100 98 99 100 100 100 100 100 100 100 100 100 100 99 100 100 100 100 100 99 94 75 72 70 62 76 77 78 69 48 69 97 94 81 92 100 100 100 100 94 85 89 95 60 77 56 6 5 8 5 5
100 100 100 88 97 98 100 95 100 100 100 100 100 100 100 100 100 100 99 88 83 96 91 100 100 100 100 100 100 100 100 99 83 61 61 92 94 100 94 86 90 100 100 100 89 96 72 5 5 5 26 85 91 100
100 100 100 98 100 100 100 100 100 100 100 100 100 100 100 100 100 98 95 74 99 100 100 100 100 100 100 100 100 100 100 100 100 100 99 100 99 91 97 100 100 91 99 100 96 65 74 54 14 51 98 100 94 100
100 100 100 100 100 100 100 100 100 100 100 100 100 100 100 100 94 77 92 95 100 100 100 100 100 100 100 100 100 99 100 100 100 99 100 100 100 100 100 100 100 100 100 93 83 72 26 23 82 95 100 100 100 100
100 100 100 100 100 100 100 100 100 100 100 100 100 100 100 100 89 82 95 100 100 98 100 100 100 100 100 100 100 100 100 100 100 100 100 100 100 100 100 100 100 97 96 99 98 97 99 100 82 99 100 100 100 100
100 100 100 100 100 100 100 100 100 100 100 100 100 100 100 100 100 100 100 100 100 100 100 100 100 100 100 100 100 100 100 100 100 100 100 100 100 100 100 100 100 93 81 72 77 92 97 100 100 100 100 100 100 100
46 98 79 97 95 88 99 94 99 98 100 78 94 88 88 95 96 98 97 100 100 100 100 100 100 100 100 100 100 100 100 100 100 100 100 100 100 100 100 100 89 60 99 100 100 98 93 100 100 100 100 100 100 100
94 100 99 100 94 100 98 96 90 90 95 93 87 91 96 92 99 96 100 100 100 100 100 100 100 100 100 100 100 100 100 98 100 100 100 100 100 100 91 36 59 78 100 100 100 100 100 100 100 100 100 100 100 100
100 95 96 98 94 88 84 87 93 100 100 90 86 89 97 87 98 100 100 100 100 100 100 100 100 100 100 100 100 100 100 99 90 77 79 88 98 100 100 100 81 52 78 100 100 100 100 100 100 100 100 100 100 100
81 65 72 79 80 90 80 96 93 96 86 93 98 98 94 100 100 100 100 100 100 100 100 100 100 100 100 94 98 97 100 100 100 97 97 69 59 86 100 100 100 100 100 100 96 99 100 100 100 100 100 100 100 100
19 93 47 58 45 89 93 92 95 98 87 91 96 98 100 100 100 100 100 100 100 100 100 100 100 100 100 98 89 94 100 94 70 18 23 37 74 100 100 100 100 100 100 100 100 100 92 94 100 100 97 100 100 100
100 95 74 36 50 98 96 95 98 100 100 100 100 100 100 100 100 100 100 100 100 100 100 100 100 100 100 97 95 86 88 90 62 69 85 100 100 100 100 100 100 100 100 100 100 100 99 98 100 100 100 100 100 94
77 98 98 39 88 92 72 84 97 99 100 100 100 100 100 100 100 100 100 100 100 100 100 100 100 100 99 99 93 64 66 88 100 100 100 100 100 100 100 100 100 100 100 100 100 100 100 100 100 100 100 100 100 99
97 94 95 93 95 95 94 75 36 56 100 100 100 100 100 100 100 100 100 100 99 100 99 100 100 100 86 51 35 61 64 93 87 93 100 100 100 90 93 100 100 100 100 100 100 100 100 100 100 98 100 86 80 77

GFSWCAN_prec_cloud_009.txt.gz
Cloud_Cover
37 5 76 63 5 70 7 48 93 100 100 100 100 100 100 94 100 100 100 100 100 18 100 43 40 99 10 44 98 95 48 86 35 29 44 5 31 5 5 5 17 37 47 28 18 65 73 58 76 56 9 5 12 5
100 100 100 100 100 100 100 100 100 100 100 100 100 100 100 100 100 14 100 100 100 5 40 64 100 67 34 36 59 22 30 44 8 8 47 5 90 85 24 66 62 32 7 14 8 8 11 6 5 5 5 5 44 5
100 100 100 100 100 100 100 100 100 100 100 100 100 100 100 100 68 95 72 98 20 16 100 99 100 74 15 23 42 5 9 58 95 87 21 30 100 45 87 61 26 65 6 27 21 5 5 5 5 5 5 5 5 20
100 100 100 100 100 100 100 100 100 100 100 100 100 100 100 97 29 87 15 15 59 94 97 100 100 49 61 77 5 6 99 100 100 100 93 69 88 97 73 13 16 14 5 5 5 5 5 6 4 32 72 6 39 93
100 100 100 100 100 100 100 100 100 100 100 100 100 100 100 78 85 68 81 92 100 68 100 100 100 61 74 67 10 53 97 100 100 83 100 72 100 85 54 15 29 17 5 11 41 80 100 100 100 54 5 73 98 52
100 100 100 100 100 81 100 100 100 100 100 100 100 100 100 100 100 87 100 100 100 100 100 100 100 49 58 70 8 16 93 100 100 100 100 98 78 5 50 80 58 86 99 100 100 100 100 100 6 5 50 100 100 64
100 100 100 100 100 100 100 100 100 100 100 100 100 100 100 100 100 100 100 100 100 100 100 100 100 98 68 89 57 15 81 100 100 100 92 52 14 51 90 100 100 100 100 100 100 96 12 6 5 5 35 31 27 78
100 100 100 100 100 100 100 100 100 100 100 100 100 100 100 100 100 96 66 100 100 100 100 100 100 99 13 26 62 70 100 96 48 14 86 91 81 90 100 100 100 100 100 87 9 5 6 5 6 20 86 97 100 100
100 100 100 100 100 100 100 100 100 100 81 96 100 100 100 100 100 99 100 100 100 100 100 100 100 84 35 55 75 61 47 64 53 89 75 35 98 100 100 100 100 89 7 14 5 58 82 68 36 84 100 100 100 100
100 100 100 100 100 100 100 100 100 100 100 100 100 100 100 100 100 100 100 100 100 100 100 100 100 100 98 100 100 100 100 83 89 85 40 96 88 100 100 88 6 5 5 90 100 74 100 80 77 100 100 100 100 100
100 100 100 100 100 100 100 100 100 100 100 100 100 100 100 99 95 100 100 97 93 100 100 100 100 100 100 96 100 91 96 81 98 42 98 88 98 100 95 79 53 20 14 42 99 74 52 50 95 99 97 100 99 99
100 100 100 100 100 100 100 100 100 100 100 100 100 100 100 100 100 100 100 98 97 100 100 100 100 100 100 100 100 100 96 93 92 57 99 98 100 100 100 100 100 100 97 74 83 97 100 100 100 100 100 100 100 100
87 84 74 100 100 100 100 100 100 100 100 100 100 100 100 100 100 100 100 100 100 100 100 100 100 100 100 100 100 100 100 99 74 92 55 94 100 100 100 100 83 98 100 100 100 100 100 100 100 100 100 100 100 100
56 40 91 71 78 66 96 100 100 100 100 100 100 100 100 100 100 100 100 100 100 100 100 100 100 100 100 100 100 100 100 100 100 100 76 100 100 100 100 100 100 100 100 100 100 100 100 100 100 100 100 100 100 100
77 100 97 89 99 91 100 100 100 100 100 100 100 100 100 100 100 100 100 100 100 100 100 100 100 100 100 100 100 100 100 100 100 98 100 100 100 100 100 100 100 100 100 100 100 100 100 100 100 100 100 100 100 65
90 50 76 100 99 100 100 100 100 100 100 100 100 100 100 100 100 100 100 100 100 100 100 100 100 100 100 100 100 100 99 98 100 99 100 100 100 100 100 100 100 100 100 100 100 100 100 100 100 100 26 5 5 5
68 30 85 100 100 100 100 100 100 100 100 100 100 100 100 100 100 100 100 100 100 100 100 100 100 100 100 100 100 100 100 100 100 100 100 100 100 100 100 100 100 100 100 96 58 100 100 100 55 6 5 5 5 5
66 89 100 100 100 100 100 100 100 100 100 100 100 100 100 100 100 100 100 100 100 100 100 100 100 100 100 100 100 100 100 100 100 100 100 100 100 100 100 100 100 91 99 100 100 95 86 12 5 5 5 5 5 5
70 34 98 100 100 100 100 100 100 100 100 100 100 100 100 100 100 100 100 100 100 100 100 100 100 100 100 100 100 100 100 100 100 100 100 100 100 100 99 97 100 100 99 93 93 83 33 5 5 5 5 5 5 5
75 72 46 24 85 98 100 100 100 100 100 100 100 100 100 100 100 100 100 100 100 100 100 100 100 100 100 100 100 100 100 100 100 100 100 100 100 100 100 100 100 90 87 88 99 88 53 54 19 5 5 17 49 56
84 34 63 99 86 91 100 100 100 100 100 100 100 100 100 100 100 100 100 100 100 100 100 100 100 100 100 100 100 100 100 100 100 78 92 100 100 100 100 100 100 100 100 100 89 68 67 74 68 5 57 98 100 100
81 86 52 40 86 97 100 100 100 100 100 100 100 100 100 100 100 100 100 100 100 100 100 100 100 100 100 100 100 100 100 100 100 100 100 100 100 100 100 100 100 99 86 85 80 80 86 91 34 34 95 100 94 100
100 100 100 100 100 100 100 100 100 100 100 100 100 100 100 100 100 100 100 100 100 100 100 100 100 100 100 100 86 100 100 100 100 100 100 100 100 100 100 100 100 100 100 100 100 100 100 100 94 97 100 100 100 100
100 100 99 100 92 99 85 100 97 73 70 95 100 100 100 100 94 100 100 100 100 100 100 100 100 100 100 92 99 100 100 100 100 100 100 100 100 100 100 100 100 100 100 100 100 91 98 100 98 100 100 100 100 100
100 100 100 100 100 62 76 84 96 96 100 98 94 100 100 94 100 100 100 100 100 100 100 100 100 100 100 100 100 100 100 100 100 100 100 100 100 100 100 100 100 100 100 96 100 100 100 100 100 100 100 100 100 100
73 98 97 96 100 100 100 99 100 100 100 100 100 100 100 100 100 100 100 100 100 100 100 100 100 100 100 100 100 100 100 100 93 100 100 100 100 100 100 99 78 97 100 100 100 100 100 100 100 100 100 100 100 99
97 100 100 100 100 98 100 100 100 100 100 100 100 100 98 100 100 100 100 100 100 100 100 100 100 100 100 100 100 100 100 100 92 81 75 66 42 42 61 65 62 98 100 100 100 100 100 100 100 100 100 100 100 100
100 98 100 100 100 100 100 100 95 100 99 100 100 100 100 100 100 100 100 100 100 100 100 100 100 100 100 100 100 100 100 90 84 74 86 88 99 100 100 100 98 83 100 100 100 100 100 100 100 100 100 100 100 100
92 100 85 66 95 100 100 100 100 100 98 100 100 100 100 100 100 100 100 100 100 100 100 100 100 100 100 100 100 100 100 99 52 5 5 11 93 100 100 100 100 100 100 100 100 100 100 100 100 100 100 100 100 100
95 99 98 60 82 100 100 95 100 99 95 100 85 98 100 100 100 100 100 100 100 100 100 100 100 100 100 100 100 100 100 91 66 45 14 25 98 100 100 100 100 100 100 100 100 100 100 100 100 100 100 100 100 100
100 100 89 85 100 100 100 100 98 99 100 100 100 100 100 100 100 100 100 100 100 100 100 100 100 100 100 97 85 84 92 100 88 69 87 98 100 100 100 100 100 100 100 100 100 100 100 100 100 100 100 100 100 100
97 99 95 79 100 100 100 100 100 100 100 100 100 100 100 100 100 100 100 100 100 100 98 100 100 100 99 97 95 90 22 77 100 100 100 100 100 100 100 100 100 100 100 100 100 100 100 100 100 100 100 100 100 100
100 100 91 97 97 100 100 87 98 99 100 100 100 100 100 100 100 100 100 100 100 100 100 100 100 100 91 77 82 52 21 90 78 94 99 100 100 100 95 100 100 100 100 100 100 100 100 100 100 100 100 100 100 100

GFSWCAN_prec_cloud_012.txt.gz
Cloud_Cover
79 35 54 76 100 100 100 10 47 52 100 100 97 100 100 100 100 100 83 70 100 100 99 100 100 100 37 89 100 19 24 6 1 46 73 45 38 5 5 5 5 5 6 36 8 73 58 5 80 90 40 8 42 33
8 94 68 60 6 21 5 6 23 61 86 37 100 100 100 100 80 100 100 100 100 100 100 94 87 63 5 98 99 10 79 13 5 5 46 95 94 89 5 14 5 5 5 5 14 6 62 87 99 34 35 100 17 5
2 0 0 0 3 5 5 20 100 17 13 78 100 100 100 98 100 87 81 93 100 100 100 100 100 99 89 100 100 98 69 19 4 20 10 22 96 7 81 9 9 5 5 9 97 18 11 46 46 18 98 31 89 92
100 100 88 85 80 57 42 9 15 47 100 100 100 100 100 99 100 100 100 100 100 100 100 100 100 100 70 86 100 90 48 100 14 9 5 77 87 58 43 10 52 14 72 6 100 33 5 5 51 88 28 11 99 100
100 100 100 100 100 100 99 100 100 100 100 99 100 100 100 100 100 100 100 100 100 100 100 100 100 100 55 100 100 76 60 77 8 21 70 73 100 100 100 93 96 69 29 52 88 17 76 5 18 41 44 100 100 100
100 100 100 100 100 100 100 100 100 100 100 100 100 100 100 100 100 100 100 100 100 100 100 100 94 100 100 100 100 86 31 5 5 93 100 100 100 100 100 100 10 13 84 6 11 5 5 27 86 100 100 100 100 96
100 100 100 100 100 100 100 100 100 100 100 100 100 100 100 100 100 100 100 100 100 100 100 98 100 100 100 100 100 80 66 34 24 91 90 100 100 100 100 100 40 100 64 14 23 30 8 96 100 100 100 99 59 52
100 100 100 100 100 100 100 100 100 100 100 100 100 100 100 95 100 100 100 100 100 100 100 100 100 100 100 100 100 50 53 24 22 95 78 80 100 100 100 100 100 100 96 94 84 97 100 100 100 100 69 41 71 86
100 100 100 100 100 100 100 100 100 100 100 82 94 98 91 100 100 100 100 100 100 100 100 100 100 100 100 100 100 100 75 91 22 64 72 77 63 62 97 100 100 100 32 66 100 100 100 100 69 100 64 48 69 100
100 100 100 100 100 100 100 100 100 100 100 71 26 96 100 100 100 97 100 100 100 100 100 100 100 100 100 100 100 100 99 60 42 84 100 55 87 100 100 99 100 100 92 85 64 40 62 99 100 100 97 100 100 100
100 100 100 100 100 100 100 100 100 100 79 82 100 100 100 100 100 100 100 100 100 100 90 100 80 100 100 100 100 100 84 90 96 63 48 100 100 100 100 100 79 51 12 5 32 94 92 100 100 100 100 96 75 67
100 100 100 100 100 100 100 100 80 78 100 94 89 100 100 100 100 100 100 100 100 100 100 100 100 100 100 100 100 100 100 100 91 84 95 100 100 100 100 99 100 100 63 67 98 100 100 100 100 98 96 99 92 93
100 100 100 100 100 100 100 100 100 100 100 100 88 100 100 88 100 100 100 100 100 100 100 100 100 100 100 100 100 100 100 100 82 89 58 77 100 100 100 100 97 98 79 100 93 100 100 100 100 100 100 100 100 100
100 100 100 100 100 100 100 100 100 100 100 100 100 100 100 100 100 100 100 100 100 100 100 100 100 100 100 100 100 100 100 100 100 99 80 100 100 100 100 100 100 100 100 100 100 100 100 100 100 100 100 100 100 100
100 80 100 100 100 100 100 100 100 100 100 100 100 100 100 100 100 100 100 100 100 100 100 100 100 100 100 100 100 100 100 100 99 99 100 100 100 100 100 100 100 100 100 100 100 100 100 100 100 100 100 100 100 100
26 52 94 44 97 100 100 100 100 100 100 100 100 100 100 100 100 100 100 100 100 100 100 100 100 100 100 100 100 100 100 94 100 100 100 100 100 100 100 100 100 100 100 100 100 100 100 100 100 100 100 100 100 75
5 5 8 95 100 78 48 88 100 100 100 100 100 100 100 100 100 100 100 100 100 100 100 100 100 100 100 100 100 100 100 100 100 100 100 100 100 100 100 100 100 100 100 100 100 100 100 100 100 100 100 52 6 5
56 90 84 38 9 87 100 100 100 100 100 100 100 100 100 100 100 100 100 100 100 100 100 100 100 100 100 100 100 100 100 100 100 100 100 100 100 100 100 100 100 100 100 100 100 100 100 100 96 66 6 5 5 5
100 100 100 100 38 86 100 98 100 100 100 100 100 100 100 100 100 100 100 100 100 100 100 100 100 100 100 100 100 100 100 100 100 100 100 100 100 100 100 100 100 100 100 100 100 99 98 86 42 5 5 5 5 5
100 100 100 100 92 95 100 100 100 100 100 100 100 100 100 100 100 100 100 100 100 100 100 100 100 100 100 100 100 100 100 100 100 100 100 100 100 100 100 100 100 100 100 100 100 98 97 60 5 5 5 24 78 66
27 15 39 71 99 100 100 100 100 100 100 100 100 100 100 100 100 100 100 100 100 100 100 100 100 100 100 100 100 100 100 100 100 100 100 100 100 100 100 100 100 100 100 100 100 100 100 75 71 57 65 86 21 20
6 5 5 6 55 78 98 100 100 100 100 100 100 100 100 100 100 100 100 100 100 100 100 100 100 100 100 100 100 100 100 100 100 100 100 100 100 100 100 100 100 100 100 100 100 100 99 84 91 61 83 57 86 98
19 5 3 44 52 17 33 59 94 81 90 100 100 100 100 100 100 100 100 100 100 100 100 100 100 100 100 100 100 100 100 100 100 100 100 100 100 100 100 100 100 100 100 100 100 100 100 100 100 97 96 95 95 100
5 65 28 52 30 91 24 75 55 77 65 82 94 100 100 100 100 100 100 100 100 100 100 100 100 100 100 100 100 100 100 100 100 100 100 100 100 100 100 100 100 100 100 100 100 100 100 100 100 100 99 88 100 100
4 40 43 20 7 80 100 97 99 93 100 100 95 98 99 85 99 100 100 100 100 99 100 100 100 100 100 100 100 100 99 100 100 100 100 100 100 100 100 100 100 100 100 100 100 100 100 100 87 87 83 99 100 100
71 94 86 100 96 82 92 100 100 100 100 100 100 100 100 98 97 100 100 100 100 100 100 100 100 100 100 100 100 100 100 99 92 89 94 98 90 98 92 90 95 100 94 93 100 100 99 89 86 98 100 100 100 100
99 100 100 100 100 97 100 100 94 99 98 100 100 100 62 97 100 100 100 100 100 100 100 100 100 100 100 100 100 100 99 76 76 72 80 96 100 94 72 89 99 86 80 100 100 100 100 100 100 100 100 100 100 98
100 100 100 100 100 100 99 98 98 100 100 100 97 86 100 100 100 100 100 100 100 100 100 100 100 100 100 100 100 100 100 86 93 100 92 94 94 100 93 100 94 57 92 99 98 100 100 100 100 100 100 100 98 100
95 96 60 36 100 100 100 100 100 100 100 100 98 100 100 100 100 100 100 100 100 100 100 100 100 100 100 100 94 100 100 100 98 76 52 92 100 100 75 92 100 100 100 100 100 100 100 100 100 100 100 100 97 100
99 76 76 35 55 98 99 90 100 93 100 100 85 93 100 100 100 100 100 100 100 100 100 100 100 100 100 100 100 100 100 100 97 87 77 90 100 99 100 100 100 100 100 100 100 100 100 100 97 100 100 100 100 100
100 99 54 75 93 97 99 100 100 100 100 99 100 100 99 100 100 100 100 100 100 100 100 100 100 100 100 100 100 100 98 99 80 93 73 96 100 100 100 100 100 100 100 100 100 100 100 100 100 100 100 100 100 100
100 100 98 86 100 100 100 100 100 100 100 100 100 93 100 100 100 100 100 100 100 100 100 99 100 100 100 100 100 99 67 85 100 99 91 100 100 100 100 100 100 100 100 100 100 100 100 100 100 100 100 100 100 77
91 87 85 92 93 99 100 86 96 100 99 100 100 100 100 100 100 100 100 100 100 100 100 100 100 100 100 99 82 80 100 100 98 96 100 100 82 39 97 100 100 100 100 100 100 100 100 100 100 100 100 100 100 99

GFSWCAN_prec_cloud_015.txt.gz
Cloud_Cover
100 100 100 98 26 54 99 100 100 100 100 93 100 80 10 31 100 100 100 100 100 100 59 13 9 6 24 68 4 40 100 100 8 45 21 5 36 5 5 5 5 5 23 65 73 78 14 5 45 5 5 5 5 20
100 100 100 59 21 100 98 96 100 100 100 100 94 79 100 96 100 100 100 100 100 100 100 36 0 2 23 5 89 100 100 100 96 99 44 58 76 79 5 5 5 5 5 5 5 5 5 5 5 5 46 92 75 71
5 18 63 62 100 100 100 100 99 100 100 92 70 25 57 15 54 54 100 100 100 100 89 46 100 85 99 100 100 100 89 22 59 9 11 87 30 7 20 5 5 13 5 5 5 5 21 76 65 80 100 100 100 64
42 5 8 100 60 57 100 97 62 96 89 100 93 79 45 97 100 91 100 100 100 100 100 100 100 68 100 100 94 100 34 56 100 100 85 100 66 9 30 6 6 26 5 5 10 5 7 16 59 100 100 100 100 100
11 0 0 5 5 5 5 4 32 76 98 100 56 64 84 100 100 100 100 100 100 100 100 100 100 100 100 100 100 100 28 50 100 100 98 31 26 19 17 28 98 32 59 100 90 100 13 43 26 40 29 58 86 100
40 14 7 29 5 5 5 5 71 90 97 18 18 28 100 100 100 100 100 100 100 100 100 100 100 100 100 100 100 90 30 100 72 22 87 97 99 60 45 8 81 66 99 100 100 99 100 100 100 55 8 19 14 26
100 94 92 68 19 42 17 5 9 70 64 68 79 99 100 100 100 100 100 100 100 100 100 100 100 100 100 100 100 100 100 76 80 20 70 100 100 46 99 58 99 92 100 100 100 99 100 100 99 41 37 76 89 100
100 100 100 100 100 100 100 91 100 98 86 94 89 100 100 100 100 100 100 100 100 100 100 100 100 100 100 100 100 88 94 100 90 100 90 53 84 44 6 92 100 100 100 100 100 100 98 100 100 98 74 100 100 100
100 100 100 100 100 100 100 100 100 100 100 100 100 100 100 100 100 100 100 100 100 100 100 100 100 100 100 100 100 100 100 100 100 100 86 26 70 36 81 98 100 99 100 100 100 100 100 100 53 54 71 45 88 85
100 100 100 100 100 100 100 100 100 100 99 56 99 100 100 100 100 100 100 100 100 93 100 100 100 100 100 100 100 100 100 100 100 100 99 95 22 89 100 100 100 77 78 100 100 100 100 100 100 100 100 100 100 100
100 100 100 100 100 100 100 100 100 100 100 100 100 100 84 100 100 93 89 98 97 100 100 100 100 100 100 100 100 100 100 100 98 88 100 81 72 68 97 100 100 100 100 100 83 52 61 80 100 100 100 94 96 92
100 100 100 100 100 100 100 100 100 99 100 100 98 100 68 100 99 66 100 100 73 100 100 100 100 100 100 100 100 100 100 100 100 99 93 57 100 100 100 100 100 100 83 72 72 94 100 100 100 75 80 98 100 100
100 100 100 100 100 100 100 100 100 100 100 97 97 100 100 100 100 100 100 100 100 100 100 100 100 100 100 100 100 100 100 99 100 100 100 98 100 100 100 100 100 100 100 100 96 97 74 46 87 99 100 100 100 100
100 100 100 100 100 100 100 100 100 100 100 99 85 72 100 100 100 100 100 100 100 100 100 100 100 100 100 100 100 100 100 100 100 100 100 100 100 100 100 100 100 100 100 99 90 98 100 100 100 100 100 100 100 100
100 100 100 100 100 100 100 100 100 100 100 100 99 100 100 100 100 100 100 100 100 100 100 100 100 100 100 100 100 100 100 100 100 100 100 100 100 100 100 100 100 100 100 100 100 100 100 100 100 100 100 100 100 100
100 100 100 100 100 100 100 100 100 100 100 100 100 100 100 100 100 100 100 100 100 100 100 100 100 100 100 100 100 100 100 100 100 100 100 100 100 100 100 100 100 100 100 100 100 100 100 100 100 100 100 100 100 100
97 100 100 100 100 100 100 100 100 100 100 100 100 100 100 100 100 100 100 100 100 100 100 100 100 100 100 100 100 100 100 100 100 100 100 100 100 100 100 100 100 100 100 100 100 100 100 100 100 100 100 100 100 100
54 56 48 78 99 92 100 100 100 100 100 100 100 100 100 100 100 100 100 100 100 100 100 100 100 100 100 100 100 100 100 100 100 100 100 100 100 100 100 100 100 100 100 100 100 100 100 100 100 100 100 100 100 100
77 39 40 8 42 70 72 100 100 100 100 100 100 100 100 100 100 100 100 100 100 100 100 100 100 100 100 100 100 100 100 100 100 100 100 100 100 100 100 100 100 100 100 100 100 100 100 100 100 100 100 100 100 99
11 27 5 5 25 54 62 96 100 100 100 100 100 100 100 100 100 100 100 100 100 100 100 100 100 100 100 100 100 100 100 100 100 100 100 100 100 100 100 100 100 100 100 100 100 100 100 100 100 100 100 100 95 25
5 6 5 8 56 37 29 89 71 100 100 100 100 100 100 100 100 100 100 100 100 100 100 100 100 100 100 100 100 100 100 100 100 100 100 100 100 100 100 100 100 100 100 100 100 100 100 100 100 100 98 80 77 81
5 52 69 15 17 82 100 99 100 100 100 100 100 100 100 100 100 100 100 100 100 100 100 100 100 100 100 100 100 100 100 100 100 100 100 100 100 100 100 100 100 100 100 100 100 100 100 100 100 98 84 93 64 88
5 5 5 5 5 5 25 73 100 100 100 100 100 100 100 100 100 100 100 100 100 100 100 100 100 100 100 100 100 100 100 100 100 100 100 100 100 100 100 100 100 100 100 100 100 100 100 100 100 100 100 100 100 100
5 69 81 19 35 74 24 10 22 14 36 94 100 100 100 100 100 100 100 100 100 100 100 100 100 100 100 100 100 100 100 100 100 100 100 100 100 100 98 100 100 100 100 100 100 100 100 100 100 100 100 100 95 72
5 34 5 7 5 6 46 98 96 100 100 91 84 98 86 84 91 100 100 100 100 100 100 100 100 100 100 100 100 100 100 100 100 96 99 100 100 100 100 100 100 100 100 100 100 96 90 83 55 5 5 5 74 62
77 94 95 100 100 99 100 100 100 100 100 100 100 100 96 98 69 100 100 100 99 100 100 99 100 100 97 90 89 89 95 94 85 82 77 84 79 86 92 96 100 97 88 68 51 66 35 22 14 9 48 5 66 100
100 99 100 100 100 99 100 88 100 60 80 94 100 100 97 100 100 100 100 98 100 100 100 100 99 86 90 91 87 88 95 97 92 78 81 86 96 100 100 84 76 18 40 84 5 5 60 89 84 62 62 96 100 100
100 100 100 100 100 100 98 62 25 96 98 98 100 72 97 99 100 100 100 100 98 97 98 99 98 88 89 100 100 99 99 100 100 100 95 91 100 100 89 74 90 90 99 88 52 91 89 100 90 49 58 83 51 5
100 97 49 95 96 97 96 89 100 100 100 99 80 100 99 100 100 100 100 100 100 99 100 100 100 98 98 100 100 100 100 100 100 97 90 87 100 67 8 79 84 24 5 17 35 88 100 100 100 100 47 95 99 100
95 11 5 5 21 85 99 96 100 100 100 96 50 86 100 100 100 100 100 100 100 100 100 100 100 100 97 98 100 100 100 100 99 94 96 100 96 58 75 100 100 51 96 83 36 36 30 17 67 68 77 94 100 100
97 52 23 5 73 99 100 100 91 95 89 63 99 100 100 100 100 100 100 100 100 100 84 100 100 100 100 100 96 76 64 54 100 77 16 11 28 56 33 82 94 88 42 99 100 97 93 95 99 100 100 100 100 100
100 95 10 88 82 66 96 100 98 100 99 90 98 66 92 91 93 96 93 91 97 96 87 83 89 90 89 88 83 65 85 99 100 71 66 92 57 53 42 22 39 78 68 81 94 87 66 100 100 100 100 100 100 83
80 10 5 48 98 92 48 17 100 96 98 96 95 99 100 99 98 99 92 86 86 95 100 97 91 99 98 68 13 100 89 36 39 39 94 94 84 100 84 71 32 67 66 68 57 59 86 100 100 100 100 100 92 96

GFSWCAN_prec_cloud_018.txt.gz
Cloud_Cover
100 100 100 100 100 100 100 100 48 5 5 5 39 9 76 87 80 100 83 100 100 100 42 23 32 100 6 30 70 31 94 99 59 100 100 99 5 4 0 0 6 73 21 56 66 25 5 5 5 6 57 91 64 17
100 100 100 100 100 100 100 38 13 5 5 4 5 7 95 31 99 98 100 97 100 100 92 100 3 10 6 99 99 79 97 100 100 100 100 96 24 40 5 0 6 52 70 61 20 5 3 5 36 54 8 7 13 38
100 100 100 100 100 100 86 99 38 16 75 80 5 94 100 99 100 93 100 99 99 98 100 59 12 5 26 27 86 7 16 11 77 100 100 100 90 5 9 6 7 16 14 5 5 5 5 5 5 68 97 62 50 93
99 100 100 100 100 100 96 100 100 100 100 100 100 100 100 100 100 100 100 100 99 100 100 85 36 5 76 87 100 92 100 100 100 100 100 81 88 6 100 75 90 33 21 6 16 26 40 28 5 5 15 58 76 91
100 96 37 33 69 97 100 100 94 100 100 100 100 100 100 100 93 87 100 99 79 100 100 100 62 1 7 18 99 28 100 100 100 100 98 31 19 96 100 60 99 63 35 66 69 100 75 60 22 13 64 86 99 100
58 15 59 83 100 100 100 79 100 100 100 100 100 100 61 66 97 91 100 100 100 100 100 100 56 46 73 99 100 98 100 98 100 100 100 64 6 45 18 18 86 66 8 58 100 99 57 44 55 71 81 85 99 100
7 6 10 5 5 91 28 56 100 100 100 100 100 100 100 100 100 100 100 86 100 100 100 100 100 100 100 100 70 100 100 100 100 100 86 100 80 66 100 82 51 5 10 27 71 100 100 100 100 100 100 100 99 100
6 8 2 1 15 36 4 10 89 100 53 100 70 100 100 100 100 100 100 100 100 100 100 100 100 100 100 100 100 100 100 100 100 100 100 100 100 100 100 100 40 50 90 100 100 100 100 100 100 100 98 100 100 100
5 4 5 5 4 5 35 89 62 62 48 76 96 100 100 100 100 100 100 100 100 100 100 100 100 100 100 100 100 100 100 100 100 100 100 100 98 75 100 100 100 96 55 100 100 100 100 100 100 100 100 100 97 94
6 2 0 4 5 5 97 79 99 100 89 100 100 100 100 100 100 100 100 100 100 100 100 100 100 100 100 100 100 100 100 100 100 100 100 100 91 91 97 100 100 100 72 96 97 99 100 100 48 61 55 84 100 97
100 100 98 49 48 83 96 100 100 100 100 100 100 100 100 100 100 100 100 100 100 100 100 100 100 100 100 100 100 100 100 100 100 100 100 100 100 100 100 100 100 100 97 100 100 98 86 42 47 100 100 100 100 98
100 100 100 98 100 100 100 100 100 100 100 100 100 100 100 100 100 100 100 100 100 100 100 100 100 100 100 100 100 100 100 100 100 95 82 87 100 100 100 100 100 97 99 99 94 100 100 98 91 100 100 100 100 100
100 100 100 100 100 100 100 100 100 100 100 100 100 100 100 100 100 100 100 100 100 100 100 100 100 100 100 100 100 100 100 100 69 43 92 100 100 100 100 100 100 100 100 100 100 100 100 100 100 100 100 100 100 100
100 100 100 100 100 100 100 100 100 100 100 100 100 100 100 100 100 100 100 100 100 100 100 100 100 100 100 100 100 100 100 100 100 100 100 100 100 100 100 100 100 100 100 100 100 100 100 100 100 100 100 100 100 100
100 100 100 100 100 100 100 100 100 100 100 100 100 100 100 100 100 100 100 100 100 100 100 100 100 100 100 100 100 100 100 100 95 100 100 100 100 100 100 100 100 100 100 100 100 100 100 100 100 100 100 100 100 100
100 100 100 100 100 100 100 100 63 100 100 100 100 100 100 100 100 100 100 100 100 100 100 100 100 100 100 100 100 100 100 100 100 100 100 100 100 100 100 100 100 100 100 100 100 100 100 100 100 100 100 100 100 100
100 100 100 100 100 100 100 62 64 97 100 100 100 100 100 100 100 100 100 100 100 100 100 100 100 100 100 100 100 100 100 100 100 100 100 100 100 100 100 100 100 100 100 100 100 100 100 100 100 100 100 100 100 100
100 100 100 100 100 100 100 65 48 67 100 100 100 100 100 100 100 100 100 100 100 100 100 100 100 90 97 95 100 100 100 100 100 100 100 100 100 100 100 100 100 100 100 100 100 100 100 100 100 100 100 100 100 100
100 100 100 100 94 100 100 100 100 100 100 100 100 100 100 100 100 100 100 100 100 100 100 100 100 100 100 100 100 100 100 100 100 100 100 100 100 100 100 100 100 100 100 100 100 100 100 100 100 100 100 100 100 100
57 12 5 5 29 95 84 91 96 100 100 100 100 100 100 100 100 100 92 100 97 76 100 100 100 100 100 100 100 100 100 100 100 100 100 100 100 100 100 100 100 100 100 100 100 100 100 100 100 100 100 100 100 100
9 34 64 61 48 18 84 100 82 100 100 100 100 100 100 100 100 100 100 100 100 100 100 100 100 100 100 100 100 100 100 100 100 100 100 100 100 100 100 100 100 100 100 100 100 100 100 100 100 100 100 100 100 100
5 4 6 5 5 5 5 22 89 100 100 100 100 100 100 100 100 100 100 100 100 100 100 100 100 100 100 100 100 100 100 100 100 100 100 100 100 100 100 100 100 100 100 100 100 100 100 100 100 100 100 100 100 100
5 5 5 5 5 4 4 24 22 85 100 100 100 100 100 100 100 96 100 100 100 100 100 100 100 100 100 100 100 100 100 100 100 100 100 100 100 100 100 100 100 100 100 100 100 100 100 100 100 100 100 100 100 100
8 6 9 31 6 44 12 24 5 48 48 62 82 100 100 100 100 100 100 100 100 100 100 100 100 100 100 100 100 100 100 100 100 100 100 100 100 100 100 100 100 100 100 100 100 100 100 100 100 100 100 100 84 72
6 32 4 5 5 37 30 98 100 100 100 66 83 100 99 58 90 88 97 100 100 100 100 100 100 100 100 100 100 100 100 100 100 100 100 100 100 100 100 100 100 100 100 100 98 99 92 88 79 71 54 100 90 92
63 70 53 99 94 84 88 99 100 100 97 99 100 100 85 75 26 96 100 100 100 100 99 100 97 95 100 100 100 100 100 98 98 91 88 82 97 99 100 100 100 100 100 98 97 72 47 91 100 98 90 72 96 99
89 57 77 95 90 55 94 72 62 30 82 99 89 97 99 86 99 100 100 100 98 100 100 100 100 100 99 100 97 91 84 77 78 90 97 95 92 82 63 66 68 78 71 53 43 70 100 100 100 100 100 100 82 88
89 94 77 78 12 28 73 85 97 92 96 86 94 95 98 88 100 100 100 100 100 100 100 100 96 91 91 82 82 81 86 84 80 90 99 99 100 98 99 100 100 99 100 92 76 70 95 100 100 100 100 100 98 77
100 98 9 14 8 80 91 100 100 99 100 99 92 98 98 99 100 100 100 100 100 100 100 99 100 99 98 86 85 89 91 84 69 42 89 100 93 60 87 100 100 100 100 91 53 47 82 99 61 98 98 91 100 99
85 75 23 89 76 93 96 89 97 100 97 64 30 99 90 100 100 100 100 100 100 100 100 100 96 93 89 97 96 90 97 97 93 86 83 97 100 84 72 68 83 43 93 100 92 99 99 92 91 47 54 70 86 90
49 6 58 74 98 100 100 100 99 98 73 94 99 100 90 93 100 100 100 99 95 100 97 94 99 98 86 89 94 86 69 100 100 100 99 98 94 100 81 97 88 100 93 66 69 89 100 95 90 99 96 93 100 100
5 12 57 86 99 97 56 100 100 99 100 97 99 94 93 82 94 98 98 99 94 92 95 86 96 99 89 68 84 100 100 100 100 100 99 98 94 100 100 85 90 100 97 100 100 100 100 100 100 99 94 100 100 100
64 7 48 70 97 92 30 30 100 100 100 100 99 100 100 100 98 97 99 96 90 97 97 91 85 94 100 100 100 80 84 49 80 81 100 90 98 81 82 100 100 100 100 100 100 100 100 99 74 74 77 94 100 100

GFSWCAN_prec_cloud_021.txt.gz
Cloud_Cover
100 100 100 100 100 100 100 100 100 100 100 100 100 63 3 42 98 100 100 100 100 100 63 49 100 100 100 100 100 100 100 100 100 69 50 99 71 100 100 7 5 1 13 34 4 5 93 100 100 7 1 4 2 2
100 100 100 100 100 100 100 100 100 100 100 100 100 82 94 100 100 100 100 100 100 100 77 61 100 100 99 100 100 100 100 100 100 100 100 100 22 79 100 94 13 2 2 0 0 5 78 6 5 5 5 5 0 5
100 100 100 100 100 100 100 100 100 100 100 95 34 100 99 100 100 98 100 100 100 100 92 56 100 100 99 89 100 100 100 100 100 100 100 100 100 100 100 97 96 5 9 5 3 5 7 29 13 7 6 6 6 5
100 100 100 100 100 100 100 99 79 99 71 71 5 5 82 100 100 34 100 100 100 100 100 53 100 100 11 73 100 100 100 100 100 100 100 100 98 100 97 4 5 48 49 42 91 18 67 95 43 38 49 37 50 64
100 100 100 100 100 100 100 100 92 93 52 5 5 3 18 85 100 29 98 100 100 100 100 83 100 56 61 100 100 100 100 100 100 100 100 96 100 99 100 98 57 100 100 55 96 5 60 100 100 100 100 100 100 100
100 100 100 100 100 100 100 100 66 97 100 5 5 19 53 68 53 95 100 100 100 100 100 100 100 72 34 96 100 100 100 100 100 100 100 100 100 100 100 100 100 100 98 84 76 5 12 30 100 100 99 100 100 100
57 98 99 100 100 99 98 100 100 100 67 5 11 54 86 95 73 94 53 27 100 100 100 100 99 38 74 60 20 80 33 100 100 100 100 100 100 100 59 98 100 100 100 100 100 17 5 14 47 44 70 75 88 100
80 68 72 29 81 37 47 100 100 100 100 100 77 100 100 47 34 18 24 96 99 100 100 100 91 100 100 100 96 47 100 100 100 100 100 100 100 100 100 98 100 100 100 100 100 99 25 8 5 5 25 63 73 69
8 5 12 9 25 29 100 100 78 100 100 100 100 96 94 98 100 100 100 100 99 100 100 100 88 100 100 100 100 100 100 100 100 100 100 100 100 77 59 100 100 100 100 100 99 35 16 5 60 91 45 22 6 5
20 7 1 5 4 5 97 100 100 96 100 100 69 100 100 100 100 100 100 100 100 100 100 100 100 100 100 100 100 100 100 100 100 100 100 100 100 100 56 100 100 100 100 100 100 100 100 100 72 22 56 34 96 100
1 0 3 6 5 16 45 97 92 31 100 100 100 100 97 79 100 100 100 100 94 100 100 100 100 100 100 100 100 100 100 100 100 100 100 100 100 25 94 100 100 100 100 100 100 100 100 100 100 100 96 100 100 100
1 2 69 88 12 19 30 100 80 92 100 100 100 100 100 100 100 100 100 100 100 100 100 100 100 100 100 100 100 100 100 100 100 100 100 100 100 100 100 100 100 100 100 100 96 100 99 100 100 100 100 100 100 100
5 3 2 6 88 100 100 100 100 100 100 100 100 100 100 100 100 100 100 100 100 100 100 100 100 100 100 100 100 100 100 83 73 92 99 100 100 100 100 100 93 65 100 100 100 100 100 95 99 100 100 100 100 100
60 42 100 100 100 100 100 100 100 100 100 100 100 100 100 100 100 100 100 100 100 100 100 100 100 100 100 100 100 100 100 100 100 100 85 100 100 100 100 100 100 100 100 100 100 100 100 100 100 100 100 100 100 100
100 100 100 100 100 100 100 100 100 100 100 100 100 100 100 100 100 100 100 100 100 100 100 100 100 100 100 100 100 100 100 100 100 100 100 100 100 100 100 100 100 100 100 100 100 100 100 100 100 100 100 100 100 100
100 100 100 100 100 100 100 100 100 100 100 100 100 100 100 100 100 100 100 100 100 100 100 100 100 100 100 100 100 100 100 100 100 100 100 100 100 100 100 100 100 100 100 100 100 100 100 100 100 100 100 100 100 100
100 100 100 100 100 100 100 100 100 100 100 100 100 100 100 100 100 100 100 100 100 100 100 84 99 100 100 100 100 100 100 100 100 100 100 100 100 100 100 100 100 100 100 100 100 100 100 100 100 100 100 100 100 100
100 100 100 100 100 100 100 100 96 99 95 100 100 100 100 100 100 100 100 100 100 100 100 100 96 96 99 97 97 100 100 100 100 100 100 100 100 100 100 100 100 100 100 100 100 100 100 100 100 100 100 100 100 100
74 82 100 100 100 100 100 100 100 100 100 100 100 100 100 100 100 100 100 100 100 100 98 100 100 100 100 100 100 100 100 100 100 100 100 100 100 100 100 100 100 100 100 100 100 100 100 100 100 100 100 100 100 100
99 78 44 72 94 100 100 100 100 100 100 100 100 100 100 100 100 100 100 100 100 100 100 100 100 100 100 100 100 100 100 100 100 100 100 100 100 100 100 100 100 100 100 100 100 100 100 100 100 100 100 100 100 100
6 5 6 10 21 16 68 100 100 100 100 100 100 100 100 100 100 100 100 100 100 100 100 100 100 100 100 100 100 100 100 100 100 100 100 100 100 100 100 100 100 100 100 100 100 100 100 100 100 100 100 100 100 100
12 5 5 5 5 5 64 97 96 100 100 100 100 100 100 100 100 100 100 100 100 100 100 100 100 100 100 100 100 100 100 100 100 100 100 100 100 100 100 100 100 100 100 100 100 100 100 100 100 100 100 100 100 100
6 9 5 5 5 5 5 18 31 58 88 100 100 100 100 100 100 79 100 100 100 100 100 100 100 100 100 100 100 100 100 100 100 100 100 100 100 100 100 100 100 100 100 100 100 100 100 100 100 100 100 100 100 100
5 5 8 7 5 63 7 5 5 13 5 51 95 100 100 95 100 100 100 100 100 100 100 100 100 100 100 100 100 100 100 100 100 100 100 100 100 100 100 100 100 100 100 100 100 100 100 100 100 100 100 100 100 100
6 37 4 5 5 4 6 24 11 5 9 73 90 100 85 34 69 61 97 100 100 100 100 100 100 100 100 100 100 100 100 100 100 100 100 100 100 100 100 100 100 100 100 100 100 100 100 100 100 100 96 100 99 100
68 89 53 64 38 62 58 30 41 85 56 73 84 100 90 7 26 98 100 100 98 99 100 100 99 92 100 100 100 97 100 87 94 91 94 91 87 86 77 90 95 99 95 97 100 100 93 100 100 100 95 77 100 100
84 78 87 95 84 85 96 57 32 25 90 100 94 85 88 78 99 100 100 98 91 100 100 98 85 93 100 100 93 100 89 76 70 95 83 89 96 77 68 81 100 100 95 93 95 100 100 100 100 100 99 100 100 100
90 80 7 32 19 56 100 100 93 98 97 92 90 77 78 91 99 100 98 100 100 100 100 95 86 70 51 8 90 98 96 88 63 59 66 53 55 60 98 100 99 87 90 100 100 100 100 100 100 96 100 100 100 92
65 41 7 78 20 58 97 100 100 99 100 94 56 93 99 97 100 100 100 100 100 100 100 100 99 86 75 57 28 25 50 26 5 5 8 87 91 46 64 53 61 50 96 85 56 82 100 100 100 100 99 97 100 100
80 60 85 92 75 99 98 91 99 86 44 66 53 100 94 100 100 100 100 100 100 99 91 86 97 97 94 98 89 89 97 90 88 61 100 100 100 96 100 100 100 100 100 99 83 39 87 79 96 87 93 95 92 100
29 29 58 75 92 100 99 49 53 25 7 46 58 87 74 86 98 96 94 99 98 95 90 68 72 91 79 100 100 94 97 69 99 98 92 99 98 100 99 100 100 100 100 100 100 100 100 100 100 100 94 81 90 100
45 90 74 85 94 100 100 100 92 79 93 89 98 92 91 85 92 86 96 100 96 88 84 94 94 94 96 97 96 93 89 85 77 100 100 100 100 100 100 100 100 100 100 100 100 100 100 100 100 81 60 77 77 86
50 8 72 62 92 86 74 97 100 100 99 100 95 100 100 94 87 99 94 86 56 12 39 99 100 100 100 98 59 48 53 76 96 99 100 100 100 100 98 100 100 100 100 100 100 100 100 100 100 100 100 94 76 81